Coffman Cove, AK

2:19 PM AKST on February 12, 2016 (GMT -0900)
Ketchikan International

Weather History for PAKT - August, 2014

Change the Weather History Date:

Wednesday, August 20, 2014

  Actual Average Record
Temperature  
Mean Temperature 60 °F -  
Max Temperature 69 °F 64 °F 81 °F (1977)
Min Temperature 50 °F 51 °F 41 °F (1964)
Degree Days  
Heating Degree Days 5    
Growing Degree Days 10 (Base 50)    
Moisture  
Dew Point 52 °F    
Average Humidity 78    
Maximum Humidity 93    
Minimum Humidity 45    
Precipitation  
Precipitation 0.00 in - - ()
Sea Level Pressure  
Sea Level Pressure 29.96 in    
Wind  
Wind Speed 7 mph (NW)    
Max Wind Speed 13 mph    
Max Gust Speed -    
Visibility 10 miles    
Events      
Averages and records for this station are not official NWS values.
T = Trace of Precipitation, MM = Missing Value Source: NWS Daily Summary

Daily Weather History Graph

Daily Weather History Graph

Search for Another Location

Airport or City:

Trip Planner

Search our weather history database for the weather conditions in past years. The results will help you decide how hot, cold, wet, or windy it might be!

Date:

Astronomy

Aug. 20, 2014 Rise Set
Actual Time 5:29 AM AKDT 8:09 PM AKDT
Civil Twilight 4:48 AM AKDT 8:49 PM AKDT
Nautical Twilight 3:55 AM AKDT 9:43 PM AKDT
Astronomical Twilight 2:46 AM AKDT 10:50 PM AKDT
Moon 12:56 AM AKDT (8/20) 5:17 PM AKDT (8/20)
Length of Visible Light 16h 01m
Length of Day
14h 39m
Waning Crescent, 19% of the Moon is Illuminated
Aug 20
Waning Crescent
Aug 25
New
Sep 2
First Quarter
Sep 8
Full
Sep 15
Last Quarter

Hourly Weather History & Observations

Time (AKDT) Temp. Dew Point Humidity Pressure Visibility Wind Dir Wind Speed Gust Speed Precip Events Conditions
12:53 AM 54.0 °F 51.1 °F 90% 29.95 in 10.0 mi NW 6.9 mph - N/A   Clear
1:53 AM 54.0 °F 51.1 °F 90% 29.95 in 10.0 mi NW 5.8 mph - N/A   Clear
2:53 AM 54.0 °F 51.1 °F 90% 29.96 in 10.0 mi WNW 4.6 mph - N/A   Clear
3:53 AM 53.1 °F 51.1 °F 93% 29.96 in 10.0 mi NW 4.6 mph - N/A   Clear
4:53 AM 53.1 °F 51.1 °F 93% 29.96 in 10.0 mi WNW 6.9 mph - N/A   Clear
5:53 AM 53.1 °F 51.1 °F 93% 29.96 in 10.0 mi NW 4.6 mph - N/A   Clear
6:53 AM 54.0 °F 52.0 °F 93% 29.96 in 10.0 mi NW 5.8 mph - N/A   Clear
7:53 AM 57.0 °F 53.1 °F 87% 29.97 in 10.0 mi North 6.9 mph - N/A   Clear
8:53 AM 60.1 °F 53.1 °F 78% 29.96 in 10.0 mi NNW 10.4 mph - N/A   Clear
9:53 AM 62.1 °F 53.1 °F 72% 29.96 in 10.0 mi NNW 10.4 mph - N/A   Clear
10:53 AM 63.0 °F 53.1 °F 70% 29.96 in 10.0 mi NNW 12.7 mph - N/A   Partly Cloudy
11:53 AM 64.0 °F 53.1 °F 67% 29.96 in 10.0 mi NNW 11.5 mph - N/A   Partly Cloudy
12:53 PM 66.0 °F 54.0 °F 65% 29.96 in 10.0 mi NNW 11.5 mph - N/A   Clear
1:53 PM 64.9 °F 53.1 °F 65% 29.96 in 10.0 mi NNW 9.2 mph - N/A   Partly Cloudy
2:53 PM 66.9 °F 51.1 °F 57% 29.95 in 10.0 mi NW 9.2 mph - N/A   Partly Cloudy
3:53 PM 66.9 °F 50.0 °F 54% 29.95 in 10.0 mi NW 9.2 mph - N/A   Partly Cloudy
4:53 PM 68.0 °F 46.0 °F 45% 29.94 in 10.0 mi NW 5.8 mph - N/A   Partly Cloudy
5:53 PM 68.0 °F 53.1 °F 59% 29.94 in 10.0 mi NNW 5.8 mph - N/A   Clear
6:53 PM 63.0 °F 55.9 °F 78% 29.95 in 10.0 mi South 5.8 mph - N/A   Clear
7:53 PM 59.0 °F 55.0 °F 87% 29.95 in 10.0 mi South 4.6 mph - N/A   Clear
8:53 PM 57.0 °F 53.1 °F 87% 29.97 in 10.0 mi SSE 4.6 mph - N/A   Clear
9:53 PM 54.0 °F 48.9 °F 83% 29.98 in 10.0 mi South 3.5 mph - N/A   Clear
10:53 PM 52.0 °F 48.0 °F 86% 29.99 in 10.0 mi Calm Calm - N/A   Clear
11:53 PM 50.0 °F 48.0 °F 93% 30.00 in 10.0 mi Calm Calm - N/A   Clear